Location: Chodzież
(52.9983°N, 16.9198°E)
Time: 11:19:32
(UTC+02:00)

ISS - Visible Passes

Search period start: 22 September 2018 00:00
Search period end: 02 October 2018 00:00
Orbit: 403 x 408 km, 51.6° (Epoch: 22 September)

Date Brightness Start Highest point End Pass type
(mag) Time Alt. Az. Time Alt. Az. Time Alt. Az.
22 Sep -1.4 20:28:25 10° S 20:28:51 12° S 20:28:51 12° S visible
23 Sep -1.5 19:38:31 10° SE 19:38:52 10° SE 19:39:11 10° SE visible
23 Sep -1.4 21:11:35 10° SW 21:12:17 15° SW 21:12:17 15° SW visible
24 Sep -2.6 20:20:05 10° SSW 20:22:49 26° SSE 20:22:49 26° SSE visible
25 Sep -2.1 19:28:48 10° S 19:31:09 18° SE 19:33:12 11° ESE visible
25 Sep -2.4 21:03:57 10° WSW 21:05:53 30° SW 21:05:53 30° SW visible
26 Sep -3.2 20:12:12 10° SW 20:15:19 40° SSE 20:16:08 33° ESE visible
26 Sep -0.8 21:48:20 10° W 21:48:49 13° W 21:48:49 13° W visible
27 Sep -2.7 19:20:34 10° SW 19:23:29 29° SSE 19:26:17 11° E visible
27 Sep -3.1 20:56:26 10° WSW 20:58:57 47° SW 20:58:57 47° SW visible
28 Sep -3.6 20:04:33 10° WSW 20:07:47 56° SSE 20:09:02 32° ESE visible
28 Sep -1.0 21:40:53 10° W 21:41:42 16° W 21:41:42 16° W visible
29 Sep -3.2 19:12:43 10° SW 19:15:53 44° SSE 19:19:03 10° E visible
29 Sep -3.4 20:48:56 10° W 20:51:43 57° WSW 20:51:43 57° WSW visible
30 Sep -3.8 19:56:58 10° WSW 20:00:16 69° S 20:01:42 30° E visible
30 Sep -1.1 21:33:24 10° W 21:34:21 18° W 21:34:21 18° W visible
01 Oct -3.6 19:05:01 10° WSW 19:08:18 61° S 19:11:34 10° E visible
01 Oct -3.4 20:41:24 10° W 20:44:18 57° SW 20:44:18 57° SW visible
